Home   Weather   Tabriz   Past weeks

Flag for Iran Past Weather in Tabriz, Iran — Yesterday and Last 2 Weeks

Now
54 °F

Sunny.


Feels Like: 53 °F
Forecast: 47 / 72 °F
Wind: 5 mph from East

Location: Tabriz Airport

Current Time: Apr 30, 2017 at 8:14:16 am

Latest Report: Apr 30, 2017 at 7:30 am


Visibility: 10 mi

Pressure: 30.09 "Hg (25.48 "Hg at 1388m altitude)

Humidity: 72%

Dew Point: 45 °F

Location of TabrizLocation

Past Weather in Tabriz — Graph

°F

Tabriz Temperature Yesterday

Maximum temperature yesterday: 72 °F (at 3:00 pm)
Minimum temperature yesterday: 57 °F (at 12:30 am)
Average temperature yesterday: 63 °F

High & Low Weather Summary for the Past Weeks

 TemperatureHumidityPressure
High79 °F (Apr 23, 2:30 pm)94% (Apr 15, 7:00 am)30.36 "Hg (Apr 15, 7:00 am)
Low39 °F (Apr 27, 5:00 am)13% (Apr 23, 3:00 pm)29.83 "Hg (Apr 24, 4:30 pm)
Average56 °F52%30.10 "Hg
* Reported Apr 15 6:30 am — Apr 30 7:00 am, Tabriz, Weather by CustomWeather, © 2017

Note: Actual official high and low records may vary slightly from our data, if they occured in-between our weather recording intervals... More about our weather records

Advertising

Tabriz Weather History for the Previous 24 Hours

Scroll right to see more
 ConditionsComfort  
Time TempWeatherWind HumidityBarometerVisibility
7:00 am
Sun, Apr 30
50 °FSunny.2 mph76%30.09 "Hg10 mi
6:30 am52 °FClear.2 mph77%30.09 "Hg10 mi
6:00 am54 °FPassing clouds.7 mph72%30.09 "HgN/A
5:30 am54 °FPassing clouds.7 mph72%30.07 "HgN/A
5:00 am52 °FPassing clouds.7 mph72%30.07 "HgN/A
4:30 am52 °FPassing clouds.7 mph72%30.07 "HgN/A
4:00 am52 °FPassing clouds.7 mph72%30.07 "HgN/A
3:30 am54 °FPassing clouds.7 mph67%30.07 "HgN/A
3:00 am54 °FPassing clouds.2 mph67%30.07 "HgN/A
2:30 am55 °FPassing clouds.7 mph63%30.07 "HgN/A
2:00 am55 °FPassing clouds.9 mph63%30.09 "HgN/A
1:30 am55 °FPassing clouds.9 mph63%30.09 "HgN/A
1:00 am55 °FPassing clouds.7 mph59%30.07 "HgN/A
12:00 am59 °FPassing clouds.No wind55%30.07 "HgN/A
11:30 pm
Sat, Apr 29
61 °FPassing clouds.9 mph52%30.07 "HgN/A
10:30 pm63 °FPassing clouds.7 mph45%30.04 "HgN/A
10:00 pm63 °FPassing clouds.16 mph42%30.04 "HgN/A
9:30 pm63 °FPassing clouds.16 mph42%30.04 "HgN/A
9:00 pm64 °FPassing clouds.7 mph40%30.01 "HgN/A
8:30 pm64 °FPassing clouds.12 mph40%30.01 "HgN/A
8:00 pm66 °FPassing clouds.9 mph40%30.01 "HgN/A
7:30 pm68 °FPassing clouds.18 mph40%30.01 "HgN/A
7:00 pm70 °FPassing clouds.9 mph38%30.01 "HgN/A
6:30 pm72 °FPassing clouds.9 mph36%30.01 "HgN/A
6:00 pm72 °FPassing clouds.12 mph31%30.01 "HgN/A
5:00 pm70 °FScattered showers. Broken clouds.24 mph31%30.04 "HgN/A
4:30 pm70 °FScattered showers. Broken clouds.7 mph38%30.04 "HgN/A
4:00 pm70 °FScattered clouds.14 mph40%30.04 "HgN/A
3:30 pm70 °FScattered clouds.14 mph38%30.04 "HgN/A
3:00 pm72 °FPassing clouds.16 mph38%30.07 "HgN/A
2:30 pm70 °FScattered clouds.14 mph43%30.07 "HgN/A
2:00 pm70 °FScattered clouds.14 mph40%30.07 "HgN/A
1:30 pm68 °FScattered clouds.21 mph46%30.09 "HgN/A
1:00 pm68 °FScattered clouds.14 mph43%30.09 "HgN/A
12:00 pm64 °FScattered clouds.16 mph52%30.12 "HgN/A
11:30 am64 °FScattered clouds.12 mph52%30.12 "HgN/A
11:00 am61 °FPartly sunny.14 mph55%30.12 "HgN/A
10:30 am61 °FBroken clouds.14 mph55%30.12 "HgN/A
10:00 am61 °FPartly sunny.12 mph55%30.12 "HgN/A
9:30 am61 °FScattered clouds.12 mph59%30.12 "HgN/A
9:00 am61 °FPassing clouds.14 mph55%30.12 "HgN/A
8:30 am59 °FScattered clouds.12 mph55%30.12 "HgN/A
8:00 am59 °FScattered clouds.9 mph59%30.12 "HgN/A
Weather by CustomWeather, © 2017

See weather overviewHow to use our weather pages